Regional Weather Roundup
Issued by NWS Cleveland, OH

Home | Current Version | Previous Version | Graphics & Text | Print | Product List | Glossary On
Versions: 1 2 3 4 5 6 7 8 9 10 11 12 13 14 15 16 17 18 19 20 21 22 23 24 25 26 27 28 29 30 31 32 33 34 35 36 37 38 39 40 41 42 43 44 45 46 47 48 49 50
000
ASUS41 KCLE 261802
RWRCLE
OHIO REGIONAL WEATHER ROUNDUP
NATIONAL WEATHER SERVICE CLEVELAND, OH
200 PM EDT SAT MAY 26 2018

NOTE: "FAIR" INDICATES FEW OR NO CLOUDS BELOW 12,000 FEET WITH NO
SIGNIFICANT WEATHER AND/OR OBSTRUCTIONS TO VISIBILITY.

OHZ001>008-015>018-024>027-034-035-043-044-261900-
   NORTHWEST OHIO

CITY           SKY/WX    TMP DP  RH WIND       PRES   REMARKS
DEFIANCE       CLOUDY    80  67  64 VRB5      29.81S
FINDLAY        FAIR      86  63  45 S14G20    29.80F
TOLEDO EXPRESS CLOUDY    82  69  64 CALM      29.80F
TOLEDO EXEC    PTSUNNY   82  67  60 S3        29.81F
LIMA           FAIR      85  64  49 SW10      29.81F
$$

OHZ009>014-019>023-028>033-038-089-261900-
   NORTHEAST OHIO

CITY           SKY/WX    TMP DP  RH WIND       PRES   REMARKS
CLE-HOPKINS    CLOUDY    80  65  59 VRB6      29.86F
CLE-LAKEFRONT  PTSUNNY   74  62  66 CALM      29.83F
CUY CO. ARPT   PTSUNNY   81  63  54 NW6       29.87S
LORAIN-ELYRIA  FAIR      79  60  52 VRB3      29.84F
ASHTABULA      PTSUNNY   79  66  64 CALM      29.87S
AKRON-CANTON   RAIN      69  66  90 CALM      29.90S FOG
WOOSTER        FAIR      75  69  81 SE7       29.87F
MANSFIELD      PTSUNNY   81  65  58 SW9       29.86F
YOUNGSTOWN     CLOUDY    78  65  63 S8        29.87F
$$

OHZ042-051>053-060>062-070>072-077>081-261900-
  SOUTHWEST OHIO

CITY           SKY/WX    TMP DP  RH WIND       PRES   REMARKS
CINC-COVINGTON PTSUNNY   83  67  58 SW9       29.85F
CINC-LUNKEN    FAIR      83  70  64 SW10      29.84F
HAMILTON       FAIR      84  69  60 SW9       29.84F
DAYTON         PTSUNNY   83  69  62 S12       29.84F
WRIGHT-PAT AFB NOT AVBL
DAYTON GENERAL FAIR      84  68  58 S13       29.84F
WILMINGTON     FAIR      81  69  67 SW10      29.86F
$$

OHZ036-037-039>041-045>050-054>059-063>069-073>076-082>088-261900-
  CENTRAL AND SOUTHEAST OHIO

CITY           SKY/WX    TMP DP  RH WIND       PRES   REMARKS
COLUMBUS       CLOUDY    82  65  56 SW10      29.85F
OSU AIRPORT    FAIR      83  66  56 S9        29.84F
BOLTON FIELD   NOT AVBL
RICKENBACK AFB FAIR      82  68  61 MISG      29.85F
NEWARK         FAIR      82  66  58 SW9       29.85F
MARION         FAIR      83  65  54 S9        29.85S
LANCASTER      FAIR      80  67  64 SW9       29.87F
ZANESVILLE     TSTM      79  66  64 W7        29.87S
NEW PHILLY     NOT AVBL
$$




USA.gov is the U.S. government's official web portal to all federal, state and local government web resources and services.